Location: Berlise
(49.6641°N, 4.1077°E)
Time: 23:41:52
(UTC+00:00)

USA 238 DEB - Pass Details

Date: 27 January 2021
Orbit: 992 x 1220 km, 63.4° (Epoch: 28 February)

Event Time Altitude Azimuth Distance (km) Brightness Sun altitude
Rises 05:51:10 0° 226° (SW) 3,724 6.2 -14.7°
Reaches altitude 10° 05:53:42 10° 227° (SW) 2,794 5.6 -14.3°
Maximum altitude 06:00:18 78° 314° (NW) 1,074 3.6 -13.3°
Drops below altitude 10° 06:07:17 10° 42° (NE) 2,951 6.4 -12.2°
Sets 06:10:02 0° 44° (NE) 3,946 7.1 -11.8°
